Weather History for Martha's Vineyard, MA

Change the Weather History Date:

Thursday, December 1, 2011

  Actual Average Record
Temperature  
Mean Temperature 37 °F -  
Max Temperature 48 °F 46 °F 64 °F (2001)
Min Temperature 26 °F 32 °F 16 °F (1958)
Degree Days  
Heating Degree Days 28    
Moisture  
Dew Point 31 °F    
Average Humidity 67    
Maximum Humidity 89    
Minimum Humidity 54    
Precipitation  
Precipitation 0.00 in - - ()
Sea Level Pressure  
Sea Level Pressure 30.08 in    
Wind  
Wind Speed 10 mph (NNW)    
Max Wind Speed 16 mph    
Max Gust Speed 22 mph    
Visibility 10 miles    
Events      
Averages and records for this station are not official NWS values.
T = Trace of Precipitation, MM = Missing Value Source: NWS Daily Summary

Daily Weather History Graph

Daily Weather History Graph

Search for Another Location

Airport:

Trip Planner

Search our weather history database for the weather conditions in past years. The results will help you decide how hot, cold, wet, or windy it might be!

Date:

Astronomy

Dec. 01, 2011 Rise Set
Actual Time 6:48 AM EST 4:13 PM EST
Civil Twilight 6:18 AM EST 4:44 PM EST
Nautical Twilight 5:43 AM EST 5:18 PM EST
Astronomical Twilight 5:10 AM EST 5:52 PM EST
Moon 11:29 AM EST (12/1) 11:12 PM EST (12/1)
Length of Visible Light 10h 26m
Length of Day
9h 25m
Waxing Crescent, 43% of the Moon is Illuminated
Dec 1
Waxing Crescent
Dec 2
First Quarter
Dec 10
Full
Dec 17
Last Quarter
Dec 24
New

Hourly Weather History & Observations

Time (EST) Temp. Windchill Dew Point Humidity Pressure Visibility Wind Dir Wind Speed Gust Speed Precip Events Conditions
12:53 AM 48.9 °F - 33.1 °F 54% 29.86 in 10.0 mi WNW 12.7 mph 18.4 mph N/A   Overcast
2:53 AM 44.1 °F 40.8 °F 33.1 °F 65% 29.89 in 10.0 mi WNW 5.8 mph - N/A   Clear
3:53 AM 44.1 °F 38.6 °F 34.0 °F 68% 29.91 in 10.0 mi NW 10.4 mph - N/A   Clear
4:53 AM 43.0 °F 37.2 °F 33.1 °F 68% 29.94 in 10.0 mi NW 10.4 mph 19.6 mph N/A   Clear
5:53 AM 41.0 °F 33.5 °F 30.9 °F 67% 29.97 in 10.0 mi NNW 13.8 mph 19.6 mph N/A   Clear
6:53 AM 41.0 °F 35.8 °F 30.9 °F 67% 30.00 in 10.0 mi NNW 8.1 mph - N/A   Clear
7:53 AM 43.0 °F 36.0 °F 32.0 °F 65% 30.03 in 10.0 mi NNW 13.8 mph 21.9 mph N/A   Clear
8:53 AM 44.1 °F 36.8 °F 30.9 °F 60% 30.06 in 10.0 mi North 16.1 mph 21.9 mph N/A   Clear
9:53 AM 45.0 °F 38.5 °F 30.0 °F 56% 30.08 in 10.0 mi North 13.8 mph - N/A   Clear
11:32 AM 46.4 °F 39.8 °F 32.0 °F 57% 30.08 in 10.0 mi NNE 16.1 mph 19.6 mph N/A   Mostly Cloudy
11:46 AM 48.2 °F - 32.0 °F 54% 30.08 in 10.0 mi NNE 13.8 mph 21.9 mph N/A   Scattered Clouds
11:53 AM 48.0 °F - 32.0 °F 54% 30.07 in 10.0 mi North 13.8 mph - N/A   Scattered Clouds
12:40 PM 48.2 °F - 33.8 °F 58% 30.07 in 10.0 mi North 10.4 mph - N/A   Mostly Cloudy
12:53 PM 46.9 °F - 33.1 °F 59% 30.08 in 10.0 mi NNE 12.7 mph - N/A   Mostly Cloudy
1:53 PM 46.9 °F - 33.1 °F 59% 30.10 in 10.0 mi NNE 9.2 mph - N/A   Overcast
2:23 PM 48.2 °F - 33.8 °F 58% 30.10 in 10.0 mi NNW 5.8 mph - N/A   Scattered Clouds
2:53 PM 46.9 °F - 33.1 °F 59% 30.11 in 10.0 mi NNE 10.4 mph - N/A   Partly Cloudy
4:53 PM 37.9 °F - 32.0 °F 79% 30.17 in 10.0 mi Calm Calm - N/A   Clear
5:53 PM 34.0 °F 29.8 °F 28.0 °F 79% 30.18 in 10.0 mi NNW 4.6 mph - N/A   Clear
6:53 PM 30.9 °F - 26.1 °F 82% 30.20 in 10.0 mi Calm Calm - N/A   Clear
7:53 PM 28.9 °F 25.2 °F 25.0 °F 85% 30.22 in 10.0 mi NW 3.5 mph - N/A   Clear
8:53 PM 26.1 °F - 23.0 °F 88% 30.23 in 10.0 mi Calm Calm - N/A   Clear
9:53 PM 27.0 °F 20.5 °F 24.1 °F 89% 30.25 in 10.0 mi North 5.8 mph - N/A   Clear
10:53 PM 32.0 °F 26.4 °F 25.0 °F 75% 30.27 in 10.0 mi NNW 5.8 mph - N/A   Clear